[Iaude] MPEC L141: 2024 LP4 [a=1.34,e=0.22,i=20.3,H=23.4]

mpec at cfa.harvard.edu mpec at cfa.harvard.edu
Fri Jun 14 20:18:01 EDT 2024


M.P.E.C. 2024-L141                                Issued 2024 June 15, 00:16 UT

     The Minor Planet Electronic Circulars contain information on unusual
         minor planets, routine data on comets and natural satellites,
         and occasional editorial announcements.  They are published
    on behalf of Division F of the International Astronomical Union by the
          Minor Planet Center, Smithsonian Astrophysical Observatory,
                          Cambridge, MA 02138, U.S.A.
			  
             Prepared using the Tamkin Foundation Computer Network

                              MPC at CFA.HARVARD.EDU
            URL https://www.minorplanetcenter.net/    ISSN 1523-6714

                                    2024 LP4                                    


Observations:
     K24L04P  C2024 06 12.57434521 58 04.520-41 05 41.46         19.27GVEL141F51
     K24L04P  C2024 06 12.58352521 58 00.015-41 02 50.86         19.41GVEL141F51
     K24L04P  C2024 06 12.59270021 57 55.507-41 00 00.36         19.43GVEL141F51
     K24L04P* C2024 06 13.57179221 51 15.980-35 39 11.15         19.36wXEL141F51
     K24L04P  C2024 06 13.58130921 51 11.503-35 35 56.63         19.39wXEL141F51
     K24L04P  C2024 06 13.59080721 51 07.030-35 32 42.03         19.17GVEL141F51
     K24L04P  C2024 06 14.54892521 44 55.354-29 51 47.63         19.17wXEL141F52
     K24L04P  C2024 06 14.57147721 44 45.243-29 43 32.58         19.32wXEL141F52
     K24L04P  C2024 06 14.58272021 44 40.181-29 39 25.04         19.23wXEL141F52
     K24L04P KC2024 06 14.96011 21 42 25.20 -27 16 26.2                VEL141M21
     K24L04P KC2024 06 14.97360 21 42 19.68 -27 11 26.1          18.4 GVEL141M21

Observer details:
F51 Pan-STARRS 1, Haleakala.  Observers J. Herman, T. Lowe, P. Minguez, A.
    Schultz, I. Smith.  Measurers K. Chambers, T. de Boer, J. Fairlamb, H.
    Gao, M. Huber, C.-C. Lin, E. Magnier, Y. Ramanjooloo, R. Wainscoat, R.
    Weryk.  1.8-m Ritchey-Chretien + CCD.
F52 Pan-STARRS 2, Haleakala.  Observers J. Herman, T. Lowe, P. Minguez, A.
    Schultz, I. Smith.  Measurers K. Chambers, T. de Boer, J. Fairlamb, H.
    Gao, M. Huber, C.-C. Lin, E. Magnier, Y. Ramanjooloo, R. Wainscoat, R.
    Weryk.  1.8-m Ritchey-Chretien + CCD.
M21 Schiaparelli Southern Observatory, Hakos.  Observers A. Aletti, F.
    Bellini, L. Buzzi, G. Galli.  Measurer G. Galli.  0.36-m f/8.4 reflector +
    CCD.

Orbital elements:
2024 LP4                                                 Earth MOID = 0.0325 AU
Epoch 2024 Mar. 31.0 TT = JDT 2460400.5                 MPC                     
M 312.71288              (2000.0)            P               Q                  
n   0.63686176     Peri.  356.31518     -0.08985039     +0.93390688             
a   1.3379481      Node   268.30126     -0.90469284     -0.22182565             
e   0.2164583      Incl.   20.25469     -0.41648261     +0.28037709             
P   1.55           H   23.43          G   0.15           U   7                  
Residuals in seconds of arc
240612 F51  0.0   0.1+    240613 F51  0.0   0.1+    240614 F52  0.0   0.0
240612 F51  0.0   0.2+    240613 F51  0.1-  0.4+    240614 M21  0.2-  0.3+
240612 F51  0.1+  0.3-    240614 F52  0.0   0.0     240614 M21  0.1+  0.0
240613 F51  0.0   0.1-    240614 F52  0.0   0.0

Ephemeris:
2024 LP4                 a,e,i = 1.34, 0.22, 20                  q = 1.0483
Date    TT    R. A. (2000) Decl.     Delta      r    Elong.  Phase     V
2024 05 16    03 16 24.2 -82 15 27   0.2063  1.0710   101.4    67.8    22.5
...
2024 05 31    23 55 30.4 -74 43 23   0.1212  1.0534   105.8    67.8    21.3
...
2024 06 08    22 33 36.7 -59 35 26   0.07926 1.0491   113.5    62.5    20.3
...
2024 06 14    21 48 23.7 -33 08 22   0.05783 1.0483   123.1    54.3    19.3
2024 06 15    21 42 01.2 -27 02 04   0.05609 1.0484   124.3    53.1    19.2
2024 06 16    21 35 56.3 -20 36 18   0.05504 1.0485   125.2    52.3    19.2
...
2024 06 22    21 04 48.0 +15 36 00   0.06393 1.0505   120.9    56.1    19.6
...
2024 06 30    20 33 56.2 +40 26 14   0.1003  1.0564   110.8    64.1    20.8
...
2024 07 15    19 55 46.5 +54 08 31   0.1841  1.0766   104.2    66.2    22.3

A. U. Tomatic                (C) Copyright 2024 MPC           M.P.E.C. 2024-L141





More information about the Iaude mailing list